Location: Little Arabia
(41.4620°N, 81.7687°W)
Time: 20:42:59
(UTC+00:00)

Cosmos 1689 Rocket - Pass Details

Date: 29 October 2020
Orbit: 360 x 374 km, 97.5° (Epoch: 02 December)

Event Time Altitude Azimuth Distance (km) Brightness Sun altitude
Rises 22:54:59 0° 28° (NNE) 2,203 5.5 -6.2°
Reaches altitude 10° 22:57:16 10° 47° (NE) 1,349 4.3 -6.6°
Maximum altitude 22:59:26 19° 96° (E) 933 3.4 -7.0°
Drops below altitude 10° 23:01:35 10° 145° (SE) 1,339 4.6 -7.4°
Sets 23:03:51 0° 164° (SSE) 2,180 5.8 -7.8°
